Weather Roundup
Issued by NWS Chicago, IL

Home | Current Version | Previous Version | Text Only | Print | Product List | Glossary On
Versions: 1 2 3 4 5 6 7 8 9 10 11 12 13 14 15 16 17 18 19 20 21 22 23 24 25 26 27 28 29 30 31 32 33 34 35 36 37 38 39 40 41 42 43 44 45 46 47 48 49 50
000
NZUS59 KLOT 080212
HRRLOT

CHICAGO AREA WEATHER ROUNDUP
NATIONAL WEATHER SERVICE CHICAGO/ROMEOVILLE IL
900 PM CDT TUE JUL 07 2015

NOTE: "FAIR" INDICATES FEW OR NO CLOUDS BELOW 12,000 FEET WITH NO
SIGNIFICANT WEATHER AND/OR OBSTRUCTIONS TO VISIBILITY.

* THESE STATIONS ARE NOT UNDER NWS QUALITY CONTROL. THEY ALSO MAY NOT
  REPORT WEATHER SUCH AS PRECIPITATION OR FOG.

ILZ005-006-012>014-019>023-080300-
NORTHEAST ILLINOIS

CITY           SKY/WX    TMP DP  RH WIND       PRES   REMARKS
OHARE          PTCLDY    58  45  62 NE9       30.08S
MIDWAY         MOCLDY    61  45  55 N13       30.08R
AURORA         PTCLDY    60  49  66 NE6       30.08R
LANSING*       CLEAR     59  46  63 N6        30.08R
JOLIET*        PTCLDY    60  50  69 NE5       30.09R
WAUKEGAN       CLEAR     54  49  83 CALM      30.08F
DUPAGE AIRPORT CLEAR     58  47  66 NE9       30.08R
WHEELING       CLEAR     57  46  66 N6        30.10S
KANKAKEE*      MOCLDY    59  51  73 N7        30.08R
MORRIS*        PTCLDY    60  51  73 E5        30.06R
LEWIS AIRPORT* PTCLDY    59  48  67 NE7       30.08R
NORTHERLY IS     N/A     58  48  69 N9          N/A
$$

WIZ051-052-058>065-066-070>072-080300-
SOUTHEAST WISCONSIN

CITY           SKY/WX    TMP DP  RH WIND       PRES   REMARKS
MILWAUKEE      PTCLDY    57  46  66 N8        30.09F
KENOSHA*       CLEAR     56  48  74 N3        30.09S
RACINE*        CLEAR     56  47  71 N5        30.10F
BURLINGTON     CLEAR     55  47  76 CALM      30.10R
WAUKESHA       PTCLDY    55  46  71 NE6       30.11S
WEST BEND      CLEAR     54  48  82 CALM      30.10S
$$

INZ001>003-010>013-019-020-080300-
NORTHWEST INDIANA

CITY           SKY/WX    TMP DP  RH WIND       PRES   REMARKS
GARY*          PTCLDY    61  50  67 N14       30.08R
MICHIGAN CITY* NOT AVBL
RENSSELAER*    NOT AVBL
VALPARAISO     CLEAR     58  48  69 N7        30.06S
$$

LMZ740>746-080300-
SOUTHERN LAKE MICHIGAN

STATION/POSITION TIME  SKY/WX   TEMP WIND        PRES    VSBY
                                AIR  DIR/SP/G
                 (UTC)          (F)  (DEG/KT/KT) (MB)    (MI)
HARRISON CRIB    0100            58  360/ 14/ 16   N/A
BURNHAM HARBOR   0200            58   10/  6/ 15   N/A
CALUMET HARBOR   0100            60  350/ 11/ 16   N/A
BURNS HARBOR     0100            62   20/ 19/ 24 1018.3R
MICHIGAN CITY    0100            62  350/ 26/ 31   N/A
$$

ABBREVIATIONS USED IN REMARKS
   TC - TEMPERATURE IN CELSIUS
  WCI - WIND CHILL INDEX
   HX - HEAT INDEX
  VSB - VISIBILITY
$$


USA.gov is the U.S. government's official web portal to all federal, state and local government web resources and services.